Miscellaneous Local Product
Issued by NWS North Platte, NE

Home | Current Version | Previous Version | Graphics & Text | Print | Product List | Glossary On
Versions: 1 2 3 4 5 6 7 8 9 10 11 12 13 14 15 16 17 18 19 20 21 22 23 24 25 26 27 28 29 30 31 32 33 34 35 36 37 38 39 40 41 42 43 44 45 46 47 48 49 50
289
AXUS43 KLBF 201110
MISLBF


WESTERN AND NORTH CENTRAL NEBRASKA HOURLY WEATHER ROUNDUP
NATIONAL WEATHER SERVICE NORTH PLATTE NE
500 AM CST FRI JAN 20 2017

NOTE: "FAIR" INDICATES FEW OR NO CLOUDS BELOW 12,000 FEET WITH NO
SIGNIFICANT WEATHER AND/OR OBSTRUCTIONS TO VISIBILITY.

NOTE: STATIONS NOT REPORTING VARIABLES SUCH AS SKY/WEATHER OR
PRESSURE ARE PROVIDED BY RAWS AND APRS NETWORKS AND ARE NOT UNDER
NATIONAL WEATHER SERVICE QUALITY CONTROL.

...OBSERVATIONS IN AND NEAR THE EASTERN PANHANDLE OF NEBRASKA...

CITY           SKY/WX    TMP DP  RH WIND       PRES   REMARKS
PINE RIDGE     CLOUDY    28  22  78 W8        29.40F WCI  20
CHADRON        CLOUDY    20  16  84 SW9       29.42F WCI   9
ALLIANCE       CLOUDY    18  15  88 NW3       29.43F
SIDNEY         CLOUDY    29  23  78 W9        29.44F WCI  20
CRESCENT LAKE    N/A     23  22  96 CALM        N/A
$$

...OBSERVATIONS IN NORTHERN NEBRASKA AND FAR SOUTHERN SOUTH DAKOTA...

CITY           SKY/WX    TMP DP  RH WIND       PRES   REMARKS
WINNER         FAIR      30  27  88 SW7       29.39F WCI  23
VALENTINE      CLOUDY    19  16  88 W6        29.39F WCI  11
THEDFORD       CLEAR     30  30  98 SW12      29.45R WCI  21
AINSWORTH      CLEAR     29  28  97 SW7       29.40F WCI  22
O`NEILL        CLEAR     35  34  97 S5        29.43F WCI  31
ORD            FOG       35  33  92 SW9       29.45F VSB 3/4 WCI  28
BROKEN BOW     MOCLDY    34  34 100 SW9       29.47S FOG     WCI  27
VALENTINE NWR    N/A     28  24  86 SW6         N/A  WCI  22
BUTTE            N/A     36  33  88 SW5G12      N/A  WCI  32
HALSEY           N/A     31  31 100 SW7         N/A  WCI  24
SARGENT          N/A     31  22  69 CALM        N/A
CHAMBERS         N/A     35  34  98 CALM        N/A
EWING            N/A     36  35  96 S3          N/A
$$

...OBSERVATIONS IN SOUTHWEST NEBRASKA AND FAR NORTHEAST COLORADO...

CITY           SKY/WX    TMP DP  RH WIND       PRES   REMARKS
WRAY           FAIR      25  25 100 SW3       29.47
HOLYOKE        FAIR      32  27  80 NW8       29.46F WCI  25
IMPERIAL       FOG       28  28 100 CALM      29.48S VSB 3/4
OGALLALA       FOG       28  27  97 CALM      29.47F VSB 1/4
NORTH PLATTE   CLOUDY    34  33  96 W6        29.48F WCI  29
MCCOOK         CLOUDY    34  34 100 CALM      29.49F FOG
LEXINGTON      CLOUDY    35  34  96 CALM      29.48F FOG
STAPLETON        N/A     32  32  99 CALM        N/A
GOTHENBURG       N/A     37  35  92 CALM        N/A
CALLAWAY         N/A     36  35  95 SW5         N/A  WCI  32
$$

...OBSERVATIONS IN CENTRAL LINCOLN COUNTY AREA...

CITY           SKY/WX    TMP DP  RH WIND       PRES   REMARKS
N.P. AIRPORT   CLOUDY    34  33  96 W6        29.48F WCI  29
N.P. DOWNTOWN    N/A     34  32  93 CALM        N/A
N.P. SOUTHEAST   N/A     33  30  90 CALM        N/A
N.P. HILLCREST   N/A     33  33 100 CALM        N/A
$$

...SOME OBSERVATIONS FROM AROUND THE REGION...

CITY           SKY/WX    TMP DP  RH WIND       PRES   REMARKS
LARAMIE        CLOUDY    22  18  85 E6        29.47F WCI  14
CHEYENNE       CLOUDY    33  20  58 NW6       29.45F WCI  28
DENVER         CLOUDY    32  23  69 S6        29.45F WCI  26
AKRON          CLOUDY    30  22  72 N8        29.44F WCI  22
SCOTTSBLUFF    CLOUDY    28  22  78 NW3       29.45F
RAPID CITY     CLOUDY    28  19  69 NW9       29.37F WCI  19
BISMARCK       FOG       22  21  96 CALM      29.44F VSB 1/4
PIERRE         FOG       19  18  95 W5        29.40F VSB 1/4 WCI  12
SIOUX FALLS    FOG       37  37 100 SE8       29.51F VSB 1/2 WCI  31
OMAHA          CLOUDY    38  35  89 S3        29.58S FOG
GRAND ISLAND   FOG       36  36 100 S8        29.51R VSB 1/2 WCI  30
KANSAS CITY    FOG       45  43  93 SE5       29.56F VSB 1/2
WICHITA        FOG       46  45  96 SE6       29.51S VSB 1/4
OKLAHOMA CITY  FOG       44  44 100 SE8       29.47F VSB 1/4
DALLAS         CLEAR     51  41  68 SW14      29.60R
AMARILLO       CLEAR     46  32  58 W22G35    29.50R
DODGE CITY     CLOUDY    37  35  92 N3        29.49F FOG
HAYS           FOG       40  40 100 CALM      29.51F VSB 1/4
GOODLAND       CLOUDY    29  29 100 S9        29.46F FOG     WCI  20
$$




USA.gov is the U.S. government's official web portal to all federal, state and local government web resources and services.